Location: Plzen
(49.7500°N, 13.3667°E)
Time: 17:00:34
(UTC+02:00)

ISS - Visible Passes

Search period start: 26 September 2018 00:00
Search period end: 06 October 2018 00:00
Orbit: 403 x 408 km, 51.6° (Epoch: 27 September)

Date Brightness Start Highest point End Pass type
(mag) Time Alt. Az. Time Alt. Az. Time Alt. Az.
26 Sep -3.8 20:11:26 10° WSW 20:14:42 62° SSE 20:16:23 25° E visible
26 Sep -1.1 21:48:00 10° W 21:49:05 19° W 21:49:05 19° W visible
27 Sep -3.6 20:56:03 10° W 20:59:19 69° NNW 20:59:19 69° NNW visible
28 Sep -3.8 20:04:09 10° WSW 20:07:27 85° NNW 20:09:29 22° ENE visible
28 Sep -1.2 21:40:51 10° WNW 21:42:09 21° WNW 21:42:09 21° WNW visible
29 Sep -3.5 20:48:54 10° W 20:52:11 60° N 20:52:16 59° N visible
30 Sep -3.6 19:56:56 10° W 20:00:14 65° N 20:02:20 20° ENE visible
30 Sep -1.3 21:33:37 10° WNW 21:35:01 23° WNW 21:35:01 23° WNW visible
01 Oct -3.6 20:41:41 10° WNW 20:44:58 63° N 20:45:03 62° NNE visible
02 Oct -3.5 19:49:43 10° W 19:53:00 59° N 19:55:04 20° ENE visible
02 Oct -1.4 21:26:19 10° WNW 21:27:44 23° WNW 21:27:44 23° WNW visible
03 Oct -3.9 20:34:22 10° WNW 20:37:41 79° NNE 20:37:46 78° NE visible
04 Oct -3.7 19:42:24 10° WNW 19:45:42 66° N 19:47:47 20° E visible
04 Oct -1.4 21:18:59 10° WNW 21:20:28 23° W 21:20:28 23° W visible
05 Oct -3.8 20:26:59 10° WNW 20:30:17 70° SSW 20:30:30 66° SSE visible
